sat.trackr.live / text

‹ back to catalog

STARLINK-30218

NORAD 57604 · 2023-119C

PAYLOAD ACTIVE UNKNOWN

§ Identity

Operator
Country
US
Launch date
2023-08-11
Launch site
AFETR
Launch vehicle
Mass (kg)
RCS (m²)

Purposes: comms

External: N2YO · Heavens-Above · Gunter

§ Orbital elements

Epoch: 2026-09-20T17:24:33.238944Z

Period
94.27 min
Inclination
43.0011°
Eccentricity
0.0001496
Mean motion
15.27576248 rev/d
Perigee alt
482.0 km
Apogee alt
484.1 km
Semi-major
6,861.2 km
B*
2.8287e-5
RAAN
60.2037°
Arg perigee
267.1598°
Mean anomaly
92.9082°
Rev number
17,291

§ Raw data

STARLINK-302181 57604U 23119C   26263.72538471  .00000516  00000+0  28287-4 0  99962 57604  43.0011  60.2037 0001496 267.1598  92.9082 15.27576248172916

JSON: /api/v1/satellites/57604 · /tle

For live sub-satellite position, see the globe view (requires WebGL).

§ Visibility from observer

Set your observer location to see the next 7 days of passes ≥ 10°. The values pass through the URL so the page stays shareable.

No JS? Fill the form by hand. The geolocation button needs JavaScript.